Regional Weather Roundup
Issued by NWS

Home | Current Version | Previous Version | Text Only | Print | Product List | Glossary On
Versions: 1 2 3 4 5 6 7 8 9 10 11 12 13 14 15 16 17 18 19 20 21 22 23 24 25 26 27 28 29 30 31 32 33 34 35 36 37 38 39 40 41 42 43 44 45 46 47 48 49 50
000
ASUS45 KSLC 310010
RWRUT

UTAH REGIONAL WEATHER ROUNDUP
NATIONAL WEATHER SERVICE SALT LAKE CITY UT
600 PM MDT SAT JUL 30 2016

UTZ001>011-023>025-310100-

NORTHERN UTAH

CITY           SKY/WX    TMP DP  RH WIND       PRES   REMARKS
BRIGHAM CITY     N/A     94  31  11 W3        29.90S
HILL AFB       MOSUNNY   92  44  18 VRB3      29.94F
LOGAN          MOSUNNY   91  43  18 S3        29.91F
OGDEN          SUNNY     94  42  16 VRB5      29.90F HX  90
PROVO AIRPORT  PTSUNNY   84  61  45 NW9       29.92S
SALT LAKE CITY MOSUNNY   95  40  14 CALM      29.88F HX  91
VERNAL         CLOUDY    84  44  24 N12       29.98S
WENDOVER       MOSUNNY   95  43  16 S10       29.89F HX  91
HEBER CITY     PTSUNNY   88  45  22 E6        30.00F

$$

UTZ012>022-026-027-310100-

SOUTHERN/CENTRAL UTAH

CITY           SKY/WX    TMP DP  RH WIND       PRES   REMARKS
BLANDING       PTSUNNY   87  42  20 N10       30.10F
BRYCE CANYON   CLOUDY    74  46  36 S8        30.22F
CEDAR CITY     CLOUDY    85  50  29 W10       30.03R
DELTA          CLOUDY    88  41  19 NW18G30   29.94S
MILFORD        CLOUDY    77  57  50 S12       29.98R
MOAB/CYNLANDS  SUNNY     97  39  13 VRB3      29.88F HX  92
PRICE          MOSUNNY   91  36  14 S9        30.02F
ST GEORGE      MOCLDY   102  52  18 W20       29.80F HX 100

$$

REGIONAL REPORTS     COLORADO/ARIZONA

CITY           SKY/WX    TMP DP  RH WIND       PRES   REMARKS
CRAIG, CO      CLOUDY    94  27   9 NW7       30.03F
GRAND JUNCTION MOSUNNY   94  33  11 N8        29.93F
RIFLE          SUNNY     94  34  12 VRB7      29.97F
MONTROSE       CLOUDY    88  39  17 S9        30.05F
CORTEZ         CLOUDY    94  38  14 NW13      30.02S
PAGE, AZ       CLOUDY    96  46  18 N9        29.91F HX  92
GRAND CANYON   PTSUNNY   87  41  19 VRB7      30.15F
KINGMAN        MOSUNNY   91  57  31 SW21      29.93F
FLAGSTAFF      CLOUDY    68  53  58 E7        30.22R THUNDER

$$

REGIONAL REPORTS    NEVADA/IDAHO/WYOMING

CITY           SKY/WX    TMP DP  RH WIND       PRES   REMARKS
LAS VEGAS, NV  PTSUNNY  103  55  20 VRB5      29.70F HX 101
ELY            CLOUDY    81  39  22 SW8       30.10F
ELKO           PTSUNNY   95  39  14 VRB3      29.94F HX  91
POCATELLO, ID  MOSUNNY   95  40  14 SW12      29.87F HX  91
BURLEY         PTSUNNY   83  51  33 S17G26    29.86R
EVANSTON, WY   CLOUDY    77  42  28 SE10G21   30.16S
ROCK SPRINGS   CLOUDY    79  42  26 SW8       30.15F
KEMMERER         N/A    N/A N/A N/A W16       30.17S

$$



USA.gov is the U.S. government's official web portal to all federal, state and local government web resources and services.